Regional Weather Roundup
Issued by NWS

Home | Current Version | Previous Version | Graphics & Text | Print | Product List | Glossary Off
Versions: 1 2 3 4 5 6 7 8 9 10 11 12 13 14 15 16 17 18 19 20 21 22 23 24 25 26 27 28 29 30 31 32 33 34 35 36 37 38 39 40 41 42 43 44 45 46 47 48 49 50

000
ASUS43 KFSD 282102
RWRSD

WEATHER ROUNDUP FOR SOUTH DAKOTA
NATIONAL WEATHER SERVICE SIOUX FALLS SD
300 PM CST FRI NOV 28 2014

NOTE: "FAIR" INDICATES FEW OR NO CLOUDS BELOW 12,000 FEET WITH NO
SIGNIFICANT WEATHER AND/OR OBSTRUCTIONS TO VISIBILITY.


SDZ001>005-009-010-012>017-282200-
NORTHWEST AND NORTH CENTRAL SOUTH DAKOTA

CITY           SKY/WX    TMP DP  RH WIND       PRES   REMARKS
BUFFALO          N/A     55  33  43 S3        29.48F
FAITH            N/A     52  30  43 S10       29.57F
MOBRIDGE       MOSUNNY   27  20  75 SE12      29.59F WCI  17
$$

SDZ012>016-024>037-041>051-057-063-072>074-282200-
SOUTHWEST AND SOUTH CENTRAL SOUTH DAKOTA

CITY           SKY/WX    TMP DP  RH WIND       PRES   REMARKS
RAPID CTY ARPT MOSUNNY   63  29  27 SW7       29.56F
PIERRE         SUNNY     41  25  53 S5        29.62S
CUSTER         PTSUNNY   50  23  34 W13       29.68F
ELLSWORTH AFB  PTSUNNY   63  34  33 E5        29.56F
PHILIP         SUNNY     61  31  32 SE3       29.58F
PINE RIDGE     MOSUNNY   67  23  19 W20G30    29.63F
WINNER         FAIR      59  30  33 W6        29.61F
$$

SDZ004>011-016>023-039-040-282200-
NORTHEAST SOUTH DAKOTA

CITY           SKY/WX    TMP DP  RH WIND       PRES   REMARKS
ABERDEEN       MOSUNNY   23  15  71 NE10      29.70F WCI  12
WATERTOWN      PTSUNNY   20  14  77 E8        29.66F WCI  10
SISSETON         N/A     19  14  81 S9        29.74F WCI   8
$$

SDZ017-020-022-023-036>040-048>070-282200-
SOUTHEAST SOUTH DAKOTA

CITY           SKY/WX    TMP DP  RH WIND       PRES   REMARKS
SIOUX FALLS    PTSUNNY   34  27  75 E12       29.66F WCI  25
HURON          MOSUNNY   38  25  59 SE6       29.65F
MITCHELL       SUNNY     41  28  60 E3        29.66S
YANKTON        SUNNY     45  28  53 NE10      29.65S
$$

ABBREVIATIONS USED IN REMARKS
   TC - TEMPERATURE IN CELSIUS
  WCI - WIND CHILL INDEX
   HX - HEAT INDEX
  VSB - VISIBILITY



USA.gov is the U.S. government's official web portal to all federal, state and local government web resources and services.